Location: Kapla
(46.2483°N, 15.0094°E)
Time: 05:32:47
(UTC+00:00)

Cosmos 1486 Rocket - Pass Details

Date: 03 March 2021
Orbit: 758 x 784 km, 74.1° (Epoch: 18 April)

Event Time Altitude Azimuth Distance (km) Brightness Sun altitude
Rises 17:52:41 0° 335° (NNW) 3,255 7.6 -11.8°
Reaches altitude 10° 17:55:04 10° 333° (NNW) 2,328 6.9 -12.2°
Maximum altitude 18:00:18 65° 253° (WSW) 854 4.5 -13.1°
Drops below altitude 10° 18:05:32 10° 172° (S) 2,327 6.4 -14.0°
Sets 18:07:56 0° 169° (S) 3,254 7.1 -14.4°
